COSMOS 2251 DEB, 33826

Orbit data source: Space-Track

COSMOS 2251 DEB, 33826 is space debris in LEO originally from a launch on Wed, 16 Jun 1993 UTC launched from the Plesetsk Missile And Space Complex (PKMTR). The debris from Iridium 33, an American commercial communications satellite, has been tracked extensively since its accidental collision with the defunct Russian satellite Cosmos 2251 in 2009. This event, occurring at high speed in low Earth orbit (LEO), generated thousands of pieces of space debris, significantly increasing the risk of further collisions. The Iridium 33 debris cloud has impacted space traffic management and orbital debris mitigation strategies, making it a subject of ongoing study in space situational awareness.

Loading next visibility...
Identifier
33826, 1993-036BT
Orbit
LEO
Country
Flag of CISCIS
Related business
Manufacturer
Unknown
Mission
Spacecraft
Bus & Motor
Unknown
Mass
Unknown
Launch date (UTC)
1993-06-16 (33 years ago)
Launch vehicle
Unknown
Launch site
Plesetsk Missile And Space Complex (PKMTR)
Object type
Payload
Rocket body
Debris
Shape & HBR
Unknown shape, 0.1 m
Radar Cross Section
Medium (>0.1 m² and <1 m²)

Expand to show TLE details & history
Last TLE update: 16 hours ago

TLE from 16 hours ago
0 COSMOS 2251 DEB
1 33826U 93036BT  26235.58308171  .00003559  00000-0  80017-3 0  9995
2 33826  74.0639 291.3730 0084297 273.5165 144.0525 14.54675948914577
Epoch: 2026-08-23T13:59Z
TLE epoch observation values (Epoch: 2026-08-23T13:59:38.259Z)
Latitude
54.85649°
Longitude
133.38159°
Altitude
767.699 km
Speed
7.45 km/s
True Right ascension
21h 00m 40s
True Declination
54° 41' 41"
Sunlit
Object was in daylight at epoch
Visualization orbit readout
Latitude
Unknown
Longitude
Unknown
Altitude
Unknown
Speed
Unknown
Apparent Right ascension
Unknown
Apparent Declination
Unknown
Sunlit
N/A
Visualization observer readout
Local Sidereal Time
21:35:27
Azimuth
Unknown
Elevation
Unknown
Doppler factor
Unknown
Orbital elements
Apogee altitude
767.752 km
Perigee altitude
648.284 km
Semi-major axis
7,086.155 km
Eccentricity
0.00843
Inclination
74.0639°
RAAN
291.373°
Arg. of periapsis
273.5165°
True anomaly
144.61476°
Mean anomaly
144.0525°
Eccentric anomaly
144.33411°
Mean motion
3.63854 °/min
Orbital period
98.94 mins
BSTAR
0.00080017

Documentation

Showing up to 5 results
|